www.pogodaiklimat.ru

Погода и климат >> Архив погоды >> Португалия >> Каштелу-Бранку


ПОГОДА в Каштелу-Бранку

  • Прогноз погоды в Каштелу-Бранку
  • Монитор погоды в Каштелу-Бранку

АРХИВ ПОГОДЫ в Каштелу-Бранку

Время (UTC), дата Ветер
(напр.,м/с)
 
Видим.   Явления Облачность Т
(С)
Тd
(С)
f
(%)
Тe
(С)
Тes
(С)
Комфортность P
(гПа)
Po
(гПа)
Тmin
(С)
Tmax
(С)
R
(мм)
R24
(мм)
S
(см)
09 17.07 Ю 4 20 км 5/5 540 м
[Cu Sc]
+21.7 +19.6 88 +27 +28 душно 1027.8 1022.9
12 17.07 Ю 4 20 км 8/8 540 м
[Cu Sc]
+23.6 +20.4 82 +29 +31 душно 1028.4 1023.6
15 17.07 ЮЗ 3 20 км 9/9 480 м
[Cu Sc]
+23.8 +19.0 75 +29 +30 душно 1028.2 1023.4
18 17.07 ЮЗ 4 20 км 8/6 480 м
[Cu Sc Ac trans Ci fib]
+24.0 +19.6 76 +29 +31 душно 1027.4 1022.5 +25.2
09 18.07 ЮЗ 5 20 км 9/9 240 м
[Cu Sc]
+22.6 +21.5 94 +30 +30 очень
душно
1025.8 1020.9
12 18.07 З 5 15 км 9/9 210 м
[Cu Sc Ac lent]
+23.6 +22.0 91 +30 +31 очень
душно
1025.9 1021.0 0.0
15 18.07 З 6 18 км 9/8 300 м
[Cu Sc Ac lent Ci fib]
+24.6 +21.4 82 +31 +32 очень
душно
1025.1 1020.3
18 18.07 З 5 18 км {ливн. осадки, дождь} 9/8 210 м
[Cu Sc Ac lent Ci fib]
+24.6 +21.4 82 +31 +32 очень
душно
1024.2 1019.4 +25.3 0.8
09 19.07 З 5 18 км 8/6 210 м
[Cu Sc Ac trans Ci fib]
+22.8 +20.8 88 +30 +30 очень
душно
1023.4 1018.6
12 19.07 З 5 18 км 8/6 300 м
[Cu Sc Ac lent Ci fib]
+24.8 +21.1 80 +31 +34 очень
душно
1023.8 1019.0
15 19.07 З 6 20 км 8/6 300 м
[Cu Sc Ac lent]
+24.6 +22.1 86 +32 +34 очень
душно
1023.3 1018.5
18 19.07 З 6 20 км 6/6 330 м
[Cu Sc]
+25.3 +22.4 84 +33 +34 очень
душно
1022.5 1017.8 +26.0
09 20.07 З 4 20 км 8/6 270 м
[Cu Sc Ac lent]
+23.3 +21.8 91 +32 +32 очень
душно
1022.6 1014.8
12 20.07 ЮЗ 4 20 км 8/6 270 м
[Cu Sc Ac lent Ci fib]
+24.2 +22.1 88 +31 +35 очень
душно
1022.8 1018.0 0.4
15 20.07 ЮЗ 5 25 км 5/5 300 м
[Cu Sc Ac lent Ci fib]
+25.8 +21.5 77 +33 +38 очень
душно
1022.5 1017.7
18 20.07 ЮЗ 4 25 км 6/6 400 м
[Cu Sc Ac lent Ci fib]
+24.2 +21.3 84 +31 +33 очень
душно
1021.7 1016.9 +26.0 0.4
09 21.07 ЮЗ 5 20 км {ливн. осадки} 5/5 330 м
[Cu Sc]
+22.6 +20.0 85 +29 +30 очень
душно
1018.8 1014.0
12 21.07 З 8 6000 м в посл. час ливневой дождь 9/8 360 м
[Cu Sc Ac trans Ci sp]
+21.4 +19.6 89 +26 +27 душно 1018.6 1013.8 0.1
15 21.07 ЮЗ 7 12 км осадки на расстоянии {ливн. осадки} 8/6 360 м
[Cu Sc Ac lent]
+25.3 +23.0 87 +34 +35 очень
душно
1018.0 1013.0
18 21.07 ЮЗ 9 15 км 9/8 330 м
[Cu Sc Ac lent Ci sp]
+24.4 +22.7 90 +32 +32 очень
душно
1016.8 1012.1 +26.0 0.1
09 22.07 З 8 9000 м в посл. час ливневой дождь 9/9 210 м
[Cu Sc]
+22.0 +21.1 95 +28 +29 душно 1014.6 1009.8
12 22.07 З 6 20 км {ливн. осадки} 9/8 330 м
[Cu Sc Ac trans Ci sp]
+23.4 +20.5 84 +31 +32 очень
душно
1016.1 1011.3 0.3
15 22.07 З 7 20 км 8/6 300 м
[Cu Sc Ac lent Ci fib]
+24.8 +20.8 78 +31 +33 очень
душно
1016.3 1011.6
18 22.07 З 6 20 км 8/5 420 м
[Cu Sc Ac lent Ci sp]
+24.6 +20.8 79 +31 +32 очень
душно
1017.0 1012.2 +26.1 0.3
09 23.07 З 7 20 км 5/4 420 м
[Cu Sc Ci fib]
+22.5 +19.6 84 +29 +29 очень
душно
1017.3 1012.5
12 23.07 З 7 20 км 8/6 480 м
[Cu Sc Ac trans Cc]
+24.2 +20.2 78 +30 +31 очень
душно
1017.9 1013.1
15 23.07 З 5 18 км 9/8 330 м
[Cu Sc Ac trans Ci fib]
+24.4 +20.3 78 +30 +32 очень
душно
1017.5 1012.7
18 23.07 З 8 18 км 9/9 240 м
[Cu Sc]
+24.6 +21.8 84 +31 +32 очень
душно
1016.0 1011.2 +25.6

 

Местоположение метеостанции Каштелу-Бранку (Португалия): широта 38.52 долгота -28.71 высота над уровнем моря 41 м.

В архиве по умолчанию представлена погода в Каштелу-Бранку за последнюю неделю. Архивные данные за месяц целиком и за предыдущие месяцы, начиная с января 2011 года, Вы можете получить, выбрав интересующий диапазон дат из раскрывающегося списка и нажав кнопку "Ввод!".


*Определитесь, кто Вы:
робот инопланетянин человек

Внимание! Время в таблицах - всемирное. Для получения местного времени необходимо прибавить поправку, которая равна 0 ч.

Смотрите также архив погоды в соседних городах и на ближайших метеорологических станциях:

Погода в Орте (Португалия) (7 км)
Погода в Пико (Португалия) (24 км)
Погода в Сан-Жоржи (Португалия) (49 км)
Погода на Острове Грасьоса (Португалия) (86 км)
Погода в Ангра-ду-Эроижму (Португалия) (131 км)
Погода в Аэропорту Лажеша (Португалия) (143 км)
Погода на Флошише (Португалия) (233 км)
Погода в Понта-Делгаде (Португалия) (278 км)
Погода в Санта-Марии (Португалия) (357 км)
Погода в Фуншале (Португалия) (1252 км)

Пояснения к столбцам:

Ветер - указаны скорость ветра в м/с - средняя за 10 мин, порывы в срок и между сроками (в фигурных скобках) и направление, откуда дует ветер: С - северный, СВ - северо-восточный, В - восточный, ЮВ - юго-восточный, Ю - южный, ЮЗ - юго-западный, З - западный, СЗ - северо-западный.
Видимость - горизонтальная дальность видимости в метрах или километрах. При видимости от 1 до 10 км при отсутствии осадков обычно наблюдается дымка, при ухудшении видимости до 1 км и менее - туман. В сухую погоду видимость может ухудшаться дымом, пылью или мглою.
Явления - указаны атмосферные явления, наблюдавшиеся в срок или в последний час перед сроком; фигурными скобками обозначены явления, наблюдавшиеся между сроками (за 1-3 часа до срока); квадратными скобками обозначены град или гололедные отложения с указанием их диаметра в мм.
Облачность - указаны через наклонную черту общая и нижняя облачность в баллах и высота нижней границы облаков в метрах; квадратными скобками обозначены формы облаков: Ci - перистые, Cs - перисто-слоистые, Cc - перисто-кучевые, Ac - высококучевые, As - высокослоистые, Sc - слоисто-кучевые, Ns - слоисто-дождевые, Cu - кучевые, Cb - кучево-дождевые. Подробнее классификацию облаков см. в Атласе облаков (PDF).
T - Температура воздуха - температура, измеренная на высоте 2 м над землей.
Td - Температура точки росы - температура, при понижении до которой содержащийся в воздухе водяной пар достигнет насыщения.
f - Относительная влажность воздуха - влажноcть воздуха, измеренная на высоте 2 м над землей.
Te - Эффективная температура - температура, которую ощущает одетый по сезону человек в тени. Характеристика душности погоды. При расчете учитывается влияние влажности воздуха и скорости ветра на теплоощущения человека.
Tes - Эффективная температура на солнце - температура, которую ощущает человек, с поправкой на солнечный нагрев. Характеристика знойности погоды. Зависит от высоты солнца над горизонтом, облачности и скорости ветра. Ночью, в пасмурную погоду, а также при ветре 12 м/с и более поправка равна нулю.
P - Атмосферное давление - приведенное к уровню моря атмосферное давление.
Po - Атмосферное давление - измеренное на уровне метеостанции атмосферное давление.
Tmin - Минимальная температура - минимум температуры воздуха на высоте 2 м над землей.
Tmax - Максимальная температура - максимум температуры воздуха на высоте 2 м над землей.
R - Количество осадков - Количество выпавших осадков за период времени, мм. При наведении курсора мыши на число - период времени, за который выпало указанное количество осадков.
R24 - Количество осадков - Количество выпавших осадков за 24 часа, мм.
S - Снежный покров - Высота снежного покрова, см. При наведении курсора мыши на число - состояние снежного покрова и степень покрытия местности в баллах.